Regional Weather Roundup
Issued by NWS State College, PA

Home | Current Version | Previous Version | Text Only | Print | Product List | Glossary Off
Versions: 1 2 3 4 5 6 7 8 9 10 11 12 13 14 15 16 17 18 19 20 21 22 23 24 25 26 27 28 29 30 31 32 33 34 35 36 37 38 39 40 41 42 43 44 45 46 47 48 49 50

000
ASUS41 KCTP 190903
RWRCTP

REGIONAL WEATHER ROUNDUP
NATIONAL WEATHER SERVICE STATE COLLEGE PA
400 AM EST FRI DEC 19 2014

Note: "fair" indicates few or no clouds below 12,000 feet with no
significant weather and/or obstructions to visibility.

* = STATION THAT DOES NOT REPORT PRECIPITATION /E.G. RAIN...SNOW...ETC/
    THUNDER OR FOG.

PAZ002>004-007>009-013>016-020>023-029>032-191000-
WESTERN PENNSYLVANIA

CITY           SKY/WX    TMP DP  RH WIND       PRES   REMARKS
ERIE           CLOUDY    31  22  69 W10G20    30.14R
MEADVILLE      CLOUDY    28  25  88 NW7       30.10R FOG
FRANKLIN*      CLOUDY    28  25  86 W8        30.10S
NEW CASTLE       N/A     28  27  96 SW5       30.15S FOG
BEAVER COUNTY  NOT AVBL
BUTLER*        CLOUDY    27  25  93 W7        30.14S
PITTSBURGH INT CLOUDY    27  24  89 W9        30.14S
PITTSBURGH     CLOUDY    27  21  78 W10       30.13S
INDIANA*       CLOUDY    27  27 100 W13       30.14R FOG
LATROBE        CLOUDY    27  25  93 SW8       30.15F
WASHINGTON CO* NOT AVBL
$$

PAZ004>006-010>012-017>019-024>028-033>037-041-042-045-046-049>053-191000-
CENTRAL PENNSYLVANIA

CITY           SKY/WX    TMP DP  RH WIND       PRES   REMARKS
BRADFORD       CLOUDY    26  22  84 NW13      30.00S WCI  15
DUBOIS         CLOUDY    27  25  92 W12       30.03S
CLEARFIELD     CLOUDY    28  25  88 W6        30.05S
JOHNSTOWN      CLOUDY    23  21  92 W12G18    30.03S FOG     WCI  12
ALTOONA        CLOUDY    28  23  81 NW13      30.06F
STATE COLLEGE  CLOUDY    30  24  78 W13       30.05S
WILLIAMSPORT   CLOUDY    34  26  72 W8        30.03S
SELINSGROVE    CLOUDY    35  24  64 VRB5      30.06S
FT INDIANTOWN  CLOUDY    34  24  67 W7        30.05S
CAPITAL CITY   CLOUDY    34  24  67 W8        30.07S
HARRISBURG     CLOUDY    34  25  69 W13       30.06F
YORK           CLOUDY    34  24  67 NW6       30.07S
$$

PAZ038>040-043-044-047-048-054-055-060>062-067>071-191000-
EASTERN PENNSYLVANIA

CITY           SKY/WX    TMP DP  RH WIND       PRES   REMARKS
SCRANTON       FLURRIES  33  26  75 NW13      29.97F
MOUNT POCONO   CLOUDY    29  22  75 NW15G21   29.91S
ALLENTOWN      CLOUDY    36  23  59 NW7       30.01S
QUAKERTOWN*    CLOUDY    36  25  64 NW6       30.01F
READING        CLOUDY    35  24  64 W9        30.03S
LANCASTER      CLOUDY    33  24  69 W9        30.05S
COATESVILLE    CLOUDY    34  27  75 NW13      30.03F
POTTSTOWN      CLOUDY    34  25  69 W6        30.04S
BLUE BELL      CLOUDY    36  28  75 W5        30.01F
DOYLESTOWN     CLOUDY    34  25  69 W5        30.00S
WILLOW GROVE   NOT AVBL
NORTH PHILA    CLOUDY    38  24  57 W8        30.04S
PHILADELPHIA   CLOUDY    37  25  61 W9        30.05S
$$



USA.gov is the U.S. government's official web portal to all federal, state and local government web resources and services.